Aniak, AK

5:16 AM AKDT on April 25, 2017 (GMT -0800)
Aniak

Weather History for PANI - February, 2013

Change the Weather History Date:

Thursday, February 7, 2013

  Actual Average Record
Temperature  
Mean Temperature 12 °F -  
Max Temperature 15 °F 17 °F 41 °F (2003)
Min Temperature 8 °F 4 °F -38 °F (1999)
Degree Days  
Heating Degree Days 54    
Moisture  
Dew Point 8 °F    
Average Humidity 82    
Maximum Humidity 100    
Minimum Humidity 67    
Precipitation  
Precipitation 0.00 in - - ()
Sea Level Pressure  
Sea Level Pressure 29.30 in    
Wind  
Wind Speed 5 mph (NE)    
Max Wind Speed 13 mph    
Max Gust Speed -    
Visibility 9 miles    
Events      
Averages and records for this station are not official NWS values.
T = Trace of Precipitation, MM = Missing Value Source: NWS Daily Summary

Daily Weather History Graph

Daily Weather History Graph

Search for Another Location

Airport or City:

Trip Planner

Search our weather history database for the weather conditions in past years. The results will help you decide how hot, cold, wet, or windy it might be!

Date:

Astronomy

Feb. 07, 2013 Rise Set
Actual Time 9:43 AM AKST 6:02 PM AKST
Civil Twilight 8:55 AM AKST 6:50 PM AKST
Nautical Twilight 8:02 AM AKST 7:42 PM AKST
Astronomical Twilight 7:12 AM AKST 8:33 PM AKST
Moon 8:02 AM AKST (2/7) 3:14 PM AKST (2/7)
Length of Visible Light 9h 55m
Length of Day
8h 18m
Waning Crescent, 8% of the Moon is Illuminated
Feb 7
Waning Crescent
Feb 9
New
Feb 17
First Quarter
Feb 25
Full
Mar 4
Last Quarter

Hourly Weather History & Observations

Time (AKST) Temp. Windchill Dew Point Humidity Pressure Visibility Wind Dir Wind Speed Gust Speed Precip Events Conditions
12:16 AM 15.8 °F 8.6 °F 10.4 °F 79% 29.48 in 10.0 mi ENE 4.6 mph - N/A   Clear
12:36 AM 14.0 °F 5.1 °F 8.6 °F 79% 29.47 in 10.0 mi ENE 5.8 mph - N/A   Clear
12:56 AM 15.8 °F 8.6 °F 10.4 °F 79% 29.46 in 10.0 mi ENE 4.6 mph - N/A   Clear
1:16 AM 15.8 °F 5.1 °F 10.4 °F 79% 29.46 in 10.0 mi East 8.1 mph - N/A   Clear
1:36 AM 14.0 °F 8.2 °F 8.6 °F 79% 29.45 in 10.0 mi NE 3.5 mph - N/A   Clear
1:56 AM 12.2 °F 2.9 °F 8.6 °F 85% 29.44 in 10.0 mi ENE 5.8 mph - N/A   Clear
2:16 AM 12.2 °F 4.3 °F 8.6 °F 85% 29.44 in 10.0 mi NE 4.6 mph - N/A   Partly Cloudy
2:36 AM 12.2 °F 6.1 °F 8.6 °F 85% 29.43 in 10.0 mi NE 3.5 mph - N/A   Mostly Cloudy
2:56 AM 12.2 °F 6.1 °F 8.6 °F 85% 29.42 in 10.0 mi ENE 3.5 mph - N/A   Overcast
3:16 AM 12.2 °F 6.1 °F 10.4 °F 92% 29.42 in 10.0 mi ENE 3.5 mph - N/A   Scattered Clouds
3:36 AM 12.2 °F 4.3 °F 8.6 °F 85% 29.41 in 10.0 mi NE 4.6 mph - N/A   Mostly Cloudy
3:56 AM 12.2 °F 4.3 °F 8.6 °F 85% 29.40 in 10.0 mi NE 4.6 mph - N/A   Overcast
4:16 AM 12.2 °F 4.3 °F 6.8 °F 79% 29.39 in 10.0 mi NE 4.6 mph - N/A   Overcast
4:36 AM 12.2 °F 2.9 °F 6.8 °F 79% 29.37 in 10.0 mi NE 5.8 mph - N/A   Mostly Cloudy
4:56 AM 12.2 °F 6.1 °F 10.4 °F 92% 29.36 in 3.0 mi NNE 3.5 mph - N/A   Overcast
5:16 AM 12.2 °F 6.1 °F 8.6 °F 85% 29.35 in 1.8 mi NE 3.5 mph - N/A   Overcast
5:36 AM 12.2 °F 4.3 °F 8.6 °F 85% 29.34 in 2.0 mi ENE 4.6 mph - N/A   Overcast
5:56 AM 12.2 °F 6.1 °F 10.4 °F 92% 29.33 in 2.0 mi ENE 3.5 mph - N/A   Overcast
6:16 AM 12.2 °F 4.3 °F 10.4 °F 92% 29.32 in 2.5 mi ENE 4.6 mph - N/A   Overcast
6:36 AM 14.0 °F 2.0 °F 10.4 °F 86% 29.31 in 8.0 mi East 9.2 mph - N/A   Overcast
6:56 AM 15.8 °F 4.2 °F 10.4 °F 79% 29.30 in 5.0 mi East 9.2 mph - N/A   Overcast
7:16 AM 14.0 °F 5.1 °F 12.2 °F 93% 29.29 in 4.0 mi East 5.8 mph - N/A   Overcast
7:36 AM 14.0 °F 3.9 °F 10.4 °F 86% 29.28 in 10.0 mi East 6.9 mph - N/A   Overcast
7:56 AM 15.8 °F 5.1 °F 10.4 °F 79% 29.28 in 10.0 mi East 8.1 mph - N/A   Mostly Cloudy
8:16 AM 15.8 °F 5.1 °F 10.4 °F 79% 29.27 in 10.0 mi East 8.1 mph - N/A   Overcast
8:36 AM 15.8 °F 2.1 °F 12.2 °F 86% 29.27 in 10.0 mi ESE 12.7 mph - N/A   Overcast
8:56 AM 15.8 °F 2.7 °F 10.4 °F 79% 29.27 in 10.0 mi ESE 11.5 mph - N/A   Overcast
9:16 AM 15.8 °F 5.1 °F 10.4 °F 79% 29.26 in 10.0 mi ESE 8.1 mph - N/A   Overcast
9:36 AM 17.6 °F 5.7 °F 10.4 °F 73% 29.26 in 10.0 mi ESE 10.4 mph - N/A   Overcast
9:56 AM 15.8 °F 8.6 °F 8.6 °F 73% 29.26 in 10.0 mi ENE 4.6 mph - N/A   Overcast
10:16 AM 15.8 °F 10.2 °F 12.2 °F 86% 29.26 in 10.0 mi ENE 3.5 mph - N/A   Overcast
10:36 AM 15.8 °F 10.2 °F 12.2 °F 86% 29.26 in 10.0 mi ENE 3.5 mph - N/A   Overcast
10:56 AM 15.8 °F 10.2 °F 10.4 °F 79% 29.26 in 10.0 mi NE 3.5 mph - N/A   Overcast
11:16 AM 15.8 °F 8.6 °F 10.4 °F 79% 29.26 in 10.0 mi NE 4.6 mph - N/A   Overcast
11:36 AM 15.8 °F 7.2 °F 10.4 °F 79% 29.26 in 10.0 mi ENE 5.8 mph - N/A   Overcast
11:56 AM 15.8 °F 8.6 °F 12.2 °F 86% 29.25 in 10.0 mi ENE 4.6 mph - N/A   Overcast
12:16 PM 15.8 °F 10.2 °F 8.6 °F 73% 29.24 in 10.0 mi NE 3.5 mph - N/A   Overcast
12:36 PM 15.8 °F 10.2 °F 8.6 °F 73% 29.24 in 10.0 mi NE 3.5 mph - N/A   Overcast
12:56 PM 15.8 °F - 12.2 °F 86% 29.24 in 10.0 mi Calm Calm - N/A   Overcast
1:16 PM 15.8 °F 8.6 °F 8.6 °F 73% 29.23 in 10.0 mi NNE 4.6 mph - N/A   Overcast
1:36 PM 15.8 °F 7.2 °F 8.6 °F 73% 29.23 in 4.0 mi NNE 5.8 mph - N/A   Overcast
1:56 PM 14.0 °F 3.9 °F 8.6 °F 79% 29.23 in 7.0 mi NNE 6.9 mph - N/A   Overcast
2:16 PM 12.2 °F 4.3 °F 8.6 °F 85% 29.23 in 10.0 mi NNE 4.6 mph - N/A   Overcast
2:36 PM 12.2 °F 2.9 °F 10.4 °F 92% 29.23 in 10.0 mi North 5.8 mph - N/A   Overcast
2:56 PM 12.2 °F 4.3 °F 8.6 °F 85% 29.22 in 10.0 mi NE 4.6 mph - N/A   Overcast
3:16 PM 12.2 °F 1.7 °F 6.8 °F 79% 29.23 in 10.0 mi North 6.9 mph - N/A   Overcast
3:36 PM 12.2 °F 4.3 °F 8.6 °F 85% 29.22 in 10.0 mi NNE 4.6 mph - N/A   Overcast
3:56 PM 12.2 °F 4.3 °F 8.6 °F 85% 29.22 in 10.0 mi North 4.6 mph - N/A   Overcast
4:16 PM 10.4 °F 0.8 °F 6.8 °F 85% 29.22 in 10.0 mi North 5.8 mph - N/A   Overcast
4:36 PM 10.4 °F -0.4 °F 6.8 °F 85% 29.22 in 10.0 mi North 6.9 mph - N/A   Overcast
4:56 PM 10.4 °F 2.2 °F 6.8 °F 85% 29.23 in 10.0 mi North 4.6 mph - N/A   Overcast
5:16 PM 10.4 °F -1.5 °F 5.0 °F 79% 29.23 in 10.0 mi North 8.1 mph - N/A   Overcast
5:36 PM 10.4 °F 0.8 °F 5.0 °F 79% 29.23 in 10.0 mi North 5.8 mph - N/A   Overcast
5:56 PM 8.6 °F -2.6 °F 5.0 °F 85% 29.24 in 10.0 mi North 6.9 mph - N/A   Overcast
6:16 PM 8.6 °F -2.6 °F 3.2 °F 79% 29.24 in 10.0 mi North 6.9 mph - N/A   Overcast
6:36 PM 8.6 °F -3.7 °F 5.0 °F 85% 29.25 in 10.0 mi North 8.1 mph - N/A   Overcast
6:56 PM 8.6 °F -1.3 °F 5.0 °F 85% 29.25 in 10.0 mi North 5.8 mph - N/A   Overcast
7:16 PM 8.6 °F -1.3 °F 5.0 °F 85% 29.26 in 10.0 mi North 5.8 mph - N/A   Overcast
7:36 PM 8.6 °F -1.3 °F 5.0 °F 85% 29.26 in 10.0 mi North 5.8 mph - N/A   Overcast
7:56 PM 8.6 °F -1.3 °F 3.2 °F 79% 29.26 in 10.0 mi North 5.8 mph - N/A   Overcast
8:36 PM 8.6 °F 0.1 °F 5.0 °F 85% 29.28 in 10.0 mi North 4.6 mph - N/A   Overcast
8:56 PM 8.6 °F 0.1 °F 3.2 °F 79% 29.29 in 8.0 mi North 4.6 mph - N/A   Overcast
9:16 PM 8.6 °F -1.3 °F 5.0 °F 85% 29.30 in 7.0 mi North 5.8 mph - N/A   Overcast
9:56 PM 8.6 °F -1.3 °F 3.2 °F 79% 29.31 in 10.0 mi NNE 5.8 mph - N/A   Overcast
10:16 PM 8.6 °F -2.6 °F 3.2 °F 79% 29.32 in 10.0 mi NNE 6.9 mph - N/A   Overcast
10:36 PM 8.6 °F -2.6 °F 3.2 °F 79% 29.33 in 10.0 mi NNE 6.9 mph - N/A   Overcast
10:56 PM 8.6 °F 0.1 °F 3.2 °F 79% 29.33 in 10.0 mi North 4.6 mph - N/A   Overcast
11:16 PM 8.6 °F 2.0 °F 8.6 °F 100% 29.34 in 10.0 mi North 3.5 mph - N/A   Overcast
11:36 PM 8.6 °F -1.3 °F 3.2 °F 79% 29.35 in 10.0 mi North 5.8 mph - N/A   Overcast
11:56 PM 8.6 °F 0.1 °F 6.8 °F 92% 29.36 in 6.0 mi NNE 4.6 mph - N/A   Overcast